Location: Tryon
(41.5533°N, 100.9574°W)
Time: 17:59:10
(UTC-05:00)

Tiangong 2 - Pass Details

Date: 21 March 2019
Orbit: 378 x 389 km, 42.8° (Epoch: 21 April)

Event Time Altitude Azimuth Distance (km) Brightness Sun altitude
Exits shadow 06:49:10 19° 263° (W) 978 2.5 -11.4°
Maximum altitude 06:50:58 38° 204° (SSW) 603 1.8 -11.0°
Drops below altitude 10° 06:53:56 10° 135° (SE) 1,399 4.4 -10.5°
Sets 06:56:04 0° 127° (SE) 2,252 5.7 -10.1°
